Flag for Finland Weather past 2 weeks in Jakobstad, Finland

Now
63 °F

Broken clouds.


Feels Like: 63 °F
Forecast: 49 / 58 °F
Wind: 12 mph from Southwest

Location: Kruunupyy

Current Time: Sep 20, 2014 at 6:04:15 PM

Latest Report: Sep 20, 2014 at 4:20 PM


Visibility: N/A

Pressure: 29.86 "Hg

Humidity: 64%

Dew point: 50 °F

Location of JakobstadLocation

Historic Weather in Jakobstad — Graph

°F

Jakobstad temperature yesterday

Maximum temperature yesterday: 64 °F (at 4:20 PM)
Minimum temperature yesterday: 43 °F (at 1:50 AM)
Average temperature yesterday: 52 °F

Past Weeks' High & Low Weather Summary

 TemperatureHumidityPressure
High73 °F (Sep 9, 3:50 PM)100% (Sep 6, 12:20 AM)30.48 "Hg (Sep 6, 12:20 AM)
Low30 °F (Sep 15, 5:50 AM)39% (Sep 15, 4:20 PM)29.86 "Hg (Sep 9, 3:50 PM)
Average53 °F87%30.17 "Hg
* Reported Sep 5 4:20 PM — Sep 20 4:20 PM, Jakobstad, Weather by CustomWeather, © 2014

Note: Actual official high and low records may vary slightly from our data, if they occured in-between our weather recording intervals... More about our weather records

Advertising

Jakobstad weather history for previous 24 hours

 ConditionsComfort  
Time TempWeatherWind HumidityBarometerVisibility
4:20 PM
Sep 20
63 °FBroken clouds.12 mph64%29.86 "HgN/A
3:50 PM64 °FBroken clouds.10 mph64%29.86 "HgN/A
3:20 PM63 °FPartly sunny.9 mph68%29.86 "HgN/A
2:50 PM63 °FPassing clouds.10 mph68%29.86 "HgN/A
2:20 PM61 °FPassing clouds.9 mph77%29.86 "HgN/A
1:20 PM59 °FPartly sunny.10 mph82%29.89 "HgN/A
12:50 PM57 °FPartly sunny.10 mph88%29.89 "HgN/A
12:20 PM57 °FPartly sunny.9 mph82%29.89 "HgN/A
11:50 AM57 °FBroken clouds.8 mph88%29.89 "HgN/A
11:20 AM55 °FBroken clouds.8 mph94%29.92 "HgN/A
10:50 AM55 °FBroken clouds.8 mph88%29.92 "HgN/A
10:20 AM55 °FBroken clouds.7 mph88%29.92 "HgN/A
9:50 AM52 °FBroken clouds.8 mph100%29.92 "HgN/A
9:20 AM52 °FMostly cloudy.8 mph100%29.92 "Hg6 mi
8:50 AM52 °FLow clouds.8 mph100%29.92 "Hg6 mi
8:20 AM52 °FMostly cloudy.7 mph100%29.92 "Hg6 mi
7:50 AM52 °FMostly cloudy.7 mph100%29.92 "Hg6 mi
7:20 AM50 °FLow clouds.6 mph100%29.92 "Hg6 mi
6:50 AM50 °FLow clouds.7 mph100%29.92 "HgN/A
6:20 AM52 °FLow clouds.5 mph100%29.92 "Hg6 mi
5:50 AM52 °FMostly cloudy.6 mph100%29.92 "Hg6 mi
5:20 AM52 °FPassing clouds.6 mph100%29.95 "Hg4 mi
4:20 AM52 °FFog.6 mph100%29.95 "Hg3 mi
3:50 AM52 °FFog.8 mph100%29.95 "Hg1 mi
3:20 AM52 °FFog.8 mph100%29.95 "Hg1 mi
2:50 AM52 °FFog.7 mph100%29.98 "Hg2 mi
2:20 AM52 °FFog.7 mph100%29.98 "Hg2 mi
1:50 AM50 °FPassing clouds.7 mph100%29.98 "HgN/A
1:20 AM48 °FPassing clouds.7 mph100%29.98 "HgN/A
12:50 AM48 °FClear.7 mph100%29.98 "Hg10 mi
12:20 AM46 °FClear.7 mph100%30.01 "Hg10 mi
11:50 PM
Sep 19
46 °FClear.5 mph100%30.01 "Hg10 mi
11:20 PM48 °FPassing clouds.6 mph94%30.01 "HgN/A
10:50 PM46 °FPartly cloudy.5 mph100%30.01 "HgN/A
10:20 PM46 °FClear.6 mph100%30.01 "Hg10 mi
9:50 PM50 °FClear.3 mph88%30.01 "Hg10 mi
9:20 PM48 °FClear.6 mph94%30.01 "Hg10 mi
8:50 PM48 °FClear.3 mph94%30.01 "Hg10 mi
8:20 PM54 °FSunny.3 mph82%30.01 "Hg10 mi
7:50 PM57 °FSunny.5 mph72%30.01 "Hg10 mi
7:20 PM57 °FSunny.5 mph77%30.01 "Hg10 mi
6:50 PM61 °FSunny.3 mph68%30.01 "Hg10 mi
6:20 PM61 °FScattered clouds.5 mph68%30.01 "HgN/A
Weather by CustomWeather, © 2014

See weather overviewHow to use our weather pages